Flag for U.S.A. Weather past 2 weeks in Port Angeles, Washington, U.S.A.

Now
45 °F

Overcast.


Feels Like: 44 °F
Forecast: 38 / 47 °F
Wind: 3 mph from North

Location: William R. Fairchild International Airport

Current Time: Dec 26, 2014 at 1:27:38 PM

Latest Report: Dec 26, 2014 at 12:53 PM


Visibility: 10 mi

Pressure: 30.34 "Hg

Humidity: 80%

Dew point: 39 °F

Location of Port AngelesLocation

Historic Weather in Port Angeles — Graph

°F

Port Angeles temperature yesterday

Maximum temperature yesterday: 47 °F (at 11:53 AM)
Minimum temperature yesterday: 37 °F (at 11:53 PM)
Average temperature yesterday: 41 °F

Past Weeks' High & Low Weather Summary

 TemperatureHumidityPressure
High54 °F (Dec 11, 8:53 PM)100% (Dec 18, 4:53 AM)30.38 "Hg (Dec 18, 4:53 AM)
Low30 °F (Dec 15, 2:53 AM)59% (Dec 15, 12:53 PM)29.04 "Hg (Dec 11, 7:53 PM)
Average44 °F82%29.92 "Hg
* Reported Dec 11 11:53 AM — Dec 26 11:53 AM, Port Angeles, Weather by CustomWeather, © 2014

Note: Actual official high and low records may vary slightly from our data, if they occured in-between our weather recording intervals... More about our weather records

Advertising

Port Angeles weather history for previous 24 hours

 ConditionsComfort  
Time TempWeatherWind HumidityBarometerVisibility
11:53 AM
Dec 26
45 °FOvercast.No wind82%30.35 "Hg10 mi
10:53 AM43 °FMostly cloudy.3 mph82%30.36 "Hg10 mi
9:53 AM42 °FOvercast.5 mph85%30.37 "Hg10 mi
8:53 AM40 °FOvercast.No wind93%30.34 "Hg10 mi
7:53 AM39 °FFog.6 mph93%30.34 "Hg5 mi
6:53 AM40 °FOvercast.No wind86%30.33 "Hg9 mi
6:00 AM40 °FOvercast.No wind86%30.32 "Hg10 mi
4:53 AM40 °FOvercast.6 mph83%30.32 "Hg10 mi
3:53 AM40 °FOvercast.No wind86%30.32 "Hg10 mi
2:53 AM38 °FMostly cloudy.No wind90%30.32 "Hg10 mi
1:53 AM38 °FOvercast.No wind90%30.29 "Hg10 mi
12:53 AM40 °FLow clouds.7 mph77%30.28 "Hg10 mi
11:53 PM
Dec 25
37 °FOvercast.3 mph86%30.27 "Hg10 mi
10:53 PM40 °FOvercast.6 mph77%30.27 "Hg10 mi
9:53 PM40 °FMostly cloudy.7 mph77%30.28 "Hg10 mi
8:53 PM39 °FPassing clouds.6 mph79%30.28 "Hg10 mi
7:53 PM38 °FClear.6 mph79%30.26 "Hg10 mi
6:53 PM38 °FClear.5 mph83%30.24 "Hg10 mi
5:53 PM39 °FClear.7 mph82%30.23 "Hg10 mi
4:53 PM40 °FClear.5 mph86%30.23 "Hg10 mi
3:53 PM44 °FPassing clouds.No wind76%30.23 "Hg10 mi
2:53 PM47 °FPassing clouds.No wind71%30.22 "Hg10 mi
1:53 PM46 °FSunny.3 mph73%30.20 "Hg10 mi
Weather by CustomWeather, © 2014

See weather overviewHow to use our weather pages